,,Stat5,,Stat1,,Stat2,,Stat3,,Stat4,,Wind1,,Wind1,
time,status,PA1M_AVG,status,PR1M_SUM,status,RH1M_AVG,status,SR1M_AVG,status,TA1M_AVG,status,W1dAve1m,status,W1sAve1m,
2001-10-31, 00:00:01,VALID,919.362,VALID,0,VALID,91.4106,VALID,0,VALID,19.9775,VALID,18,VALID,1.72924,
2001-10-31, 00:01:01,VALID,919.362,VALID,0,VALID,91.4411,VALID,-0.0339617,VALID,19.9641,VALID,20,VALID,1.64804,
2001-10-31, 00:02:00,VALID,919.348,VALID,0,VALID,91.5098,VALID,-0.0339617,VALID,19.9644,VALID,16,VALID,1.36078,
2001-10-31, 00:03:00,VALID,919.34,VALID,0,VALID,91.6318,VALID,-0.0169808,VALID,19.942,VALID,12,VALID,1.16201,
2001-10-31, 00:04:01,VALID,919.314,VALID,0,VALID,91.5415,VALID,-0.0509425,VALID,19.9229,VALID,15,VALID,1.21622,
2001-10-31, 00:05:00,VALID,919.307,VALID,0,VALID,91.7183,VALID,-0.0509425,VALID,19.9328,VALID,14,VALID,1.03516,
2001-10-31, 00:06:00,VALID,919.29,VALID,0,VALID,91.6127,VALID,-0.0679233,VALID,19.9164,VALID,358,VALID,0.760557,
2001-10-31, 00:07:00,VALID,919.275,VALID,0,VALID,91.6903,VALID,-0.0509425,VALID,19.9129,VALID,2,VALID,0.983347,
2001-10-31, 00:08:00,VALID,919.258,VALID,0,VALID,91.567,VALID,-0.0679233,VALID,19.9226,VALID,21,VALID,1.01621,
2001-10-31, 00:09:00,VALID,919.232,VALID,0,VALID,91.7107,VALID,-0.0339617,VALID,19.9455,VALID,15,VALID,1.06332,
2001-10-31, 00:10:00,VALID,919.202,VALID,0,VALID,91.5949,VALID,-0.0509425,VALID,19.939,VALID,6,VALID,0.914063,
2001-10-31, 00:11:01,VALID,919.189,VALID,0,VALID,91.8226,VALID,-0.0339617,VALID,19.9358,VALID,19,VALID,0.76727,
2001-10-31, 00:12:01,VALID,919.176,VALID,0,VALID,91.8989,VALID,-0.0169808,VALID,19.9552,VALID,15,VALID,0.907278,
2001-10-31, 00:13:00,VALID,919.185,VALID,0,VALID,91.8836,VALID,-0.0169808,VALID,19.952,VALID,14,VALID,1.38504,
2001-10-31, 00:14:01,VALID,919.183,VALID,0,VALID,91.6547,VALID,-0.0339617,VALID,19.9457,VALID,9,VALID,1.05407,
2001-10-31, 00:15:00,VALID,919.19,VALID,0,VALID,91.5466,VALID,-0.0339617,VALID,19.9261,VALID,17,VALID,0.96136,
2001-10-31, 00:16:00,VALID,919.192,VALID,0,VALID,91.9472,VALID,0,VALID,19.9229,VALID,18,VALID,0.531661,
2001-10-31, 00:17:00,VALID,919.196,VALID,0,VALID,91.9942,VALID,-0.0849042,VALID,19.9189,VALID,10,VALID,1.40485,
2001-10-31, 00:18:01,VALID,919.19,VALID,0,VALID,91.4487,VALID,-0.0509425,VALID,19.9194,VALID,2,VALID,1.39174,
2001-10-31, 00:19:00,VALID,919.184,VALID,0,VALID,91.5326,VALID,-0.0339617,VALID,19.9291,VALID,13,VALID,0.797461,
2001-10-31, 00:20:00,VALID,919.173,VALID,0,VALID,91.787,VALID,-0.0339617,VALID,19.9261,VALID,12,VALID,0.840993,
2001-10-31, 00:21:01,VALID,919.166,VALID,0,VALID,92.0998,VALID,-0.0509425,VALID,19.9293,VALID,17,VALID,0.886613,
2001-10-31, 00:22:01,VALID,919.141,VALID,0,VALID,92.0273,VALID,-0.0509425,VALID,19.9134,VALID,21,VALID,0.672564,
2001-10-31, 00:23:00,VALID,919.138,VALID,0,VALID,92.0324,VALID,-0.0339617,VALID,19.9134,VALID,11,VALID,0.535262,
2001-10-31, 00:24:00,VALID,919.142,VALID,0,VALID,92.0502,VALID,-0.0169808,VALID,19.907,VALID,8,VALID,0.435059,
2001-10-31, 00:25:00,VALID,919.146,VALID,0,VALID,91.862,VALID,-0.0339617,VALID,19.8779,VALID,12,VALID,0.671675,
2001-10-31, 00:26:00,VALID,919.14,VALID,0,VALID,92.3643,VALID,0,VALID,19.8841,VALID,14,VALID,0.698214,
2001-10-31, 00:27:00,VALID,919.141,VALID,0,VALID,92.1672,VALID,-0.0849042,VALID,19.8712,VALID,11,VALID,1.03463,
2001-10-31, 00:28:00,VALID,919.149,VALID,0,VALID,92.0031,VALID,-0.0849042,VALID,19.865,VALID,10,VALID,1.18061,
2001-10-31, 00:29:00,VALID,919.135,VALID,0,VALID,92.0375,VALID,-0.0679233,VALID,19.858,VALID,10,VALID,1.00042,
2001-10-31, 00:30:00,VALID,919.12,VALID,0,VALID,92.2524,VALID,-0.0339617,VALID,19.8488,VALID,31,VALID,0.628701,
2001-10-31, 00:31:00,VALID,919.107,VALID,0,VALID,92.405,VALID,-0.0679233,VALID,19.8359,VALID,355,VALID,0.563117,
2001-10-31, 00:32:00,VALID,919.087,VALID,0,VALID,92.1138,VALID,-0.0169808,VALID,19.8202,VALID,10,VALID,0.753125,
2001-10-31, 00:33:00,VALID,919.063,VALID,0,VALID,92.157,VALID,-0.0339617,VALID,19.7902,VALID,11,VALID,0.982897,
2001-10-31, 00:34:01,VALID,919.041,VALID,0,VALID,92.2002,VALID,0,VALID,19.7937,VALID,16,VALID,0.793888,
2001-10-31, 00:35:00,VALID,919.024,VALID,0,VALID,92.3261,VALID,0,VALID,19.7907,VALID,15,VALID,1.05152,
2001-10-31, 00:36:00,VALID,919,VALID,0,VALID,92.4927,VALID,0,VALID,19.7613,VALID,29,VALID,0.893311,
2001-10-31, 00:37:00,VALID,918.996,VALID,0,VALID,92.7648,VALID,0,VALID,19.7353,VALID,21,VALID,1.00421,
2001-10-31, 00:38:00,VALID,918.999,VALID,0,VALID,92.9123,VALID,0,VALID,19.7191,VALID,22,VALID,0.86808,
2001-10-31, 00:39:00,VALID,919.008,VALID,0,VALID,92.9924,VALID,0.0169808,VALID,19.6863,VALID,28,VALID,0.785262,
2001-10-31, 00:40:00,VALID,919.014,VALID,0,VALID,92.92,VALID,0.0169808,VALID,19.6739,VALID,15,VALID,0.837086,
2001-10-31, 00:41:00,VALID,919.026,VALID,0,VALID,92.9518,VALID,0,VALID,19.6642,VALID,12,VALID,0.826225,
2001-10-31, 00:42:00,VALID,919.01,VALID,0,VALID,92.9848,VALID,0.0169808,VALID,19.6707,VALID,20,VALID,0.884457,
2001-10-31, 00:43:00,VALID,919.013,VALID,0,VALID,93.0713,VALID,0,VALID,19.6672,VALID,16,VALID,0.561472,
2001-10-31, 00:44:00,VALID,918.99,VALID,0,VALID,93.3116,VALID,0,VALID,19.6711,VALID,16,VALID,0.539955,
2001-10-31, 00:45:01,VALID,918.971,VALID,0,VALID,93.1514,VALID,0,VALID,19.648,VALID,17,VALID,0.477829,
2001-10-31, 00:46:01,VALID,918.946,VALID,0,VALID,93.1832,VALID,0,VALID,19.6349,VALID,13,VALID,0.401425,
2001-10-31, 00:47:00,VALID,918.917,VALID,0,VALID,93.1361,VALID,0,VALID,19.6319,VALID,9,VALID,0.944468,
2001-10-31, 00:48:01,VALID,918.884,VALID,0,VALID,93.2811,VALID,0,VALID,19.6483,VALID,13,VALID,1.09131,
2001-10-31, 00:49:00,VALID,918.853,VALID,0,VALID,93.1921,VALID,0,VALID,19.6615,VALID,7,VALID,1.13101,
2001-10-31, 00:50:00,VALID,918.827,VALID,0,VALID,93.1806,VALID,0,VALID,19.6545,VALID,8,VALID,1.18013,
2001-10-31, 00:51:00,VALID,918.812,VALID,0,VALID,93.3955,VALID,-0.0169808,VALID,19.6545,VALID,3,VALID,0.861064,
2001-10-31, 00:52:00,VALID,918.806,VALID,0,VALID,93.2607,VALID,0,VALID,19.6483,VALID,4,VALID,0.890855,
2001-10-31, 00:53:00,VALID,918.811,VALID,0,VALID,93.1895,VALID,0,VALID,19.6483,VALID,358,VALID,0.793285,
2001-10-31, 00:54:00,VALID,918.787,VALID,0,VALID,92.9988,VALID,-0.0169808,VALID,19.655,VALID,10,VALID,1.06024,
2001-10-31, 00:55:00,VALID,918.762,VALID,0,VALID,92.8996,VALID,0,VALID,19.6741,VALID,23,VALID,1.25082,
2001-10-31, 00:56:00,VALID,918.744,VALID,0,VALID,92.9072,VALID,0,VALID,19.6933,VALID,20,VALID,0.915848,
2001-10-31, 00:57:01,VALID,918.738,VALID,0,VALID,92.85,VALID,0,VALID,19.7164,VALID,15,VALID,1.05089,
2001-10-31, 00:58:01,VALID,918.73,VALID,0,VALID,92.8958,VALID,0,VALID,19.7295,VALID,16,VALID,0.711857,
2001-10-31, 00:59:01,VALID,918.709,VALID,0,VALID,92.8373,VALID,0,VALID,19.6898,VALID,15,VALID,0.414063,
2001-10-31, 01:00:00,VALID,918.703,VALID,0,VALID,93.0713,VALID,0,VALID,19.6711,VALID,5,VALID,0.218018,
2001-10-31, 01:01:01,VALID,918.696,VALID,0,VALID,93.3231,VALID,0,VALID,19.6552,VALID,6,VALID,0.472556,
2001-10-31, 01:02:00,VALID,918.712,VALID,0,VALID,93.6244,VALID,0,VALID,19.6254,VALID,6,VALID,0.344196,
2001-10-31, 01:03:00,VALID,918.695,VALID,0,VALID,93.7287,VALID,0.0169808,VALID,19.6292,VALID,354,VALID,0.57348,
2001-10-31, 01:04:00,VALID,918.704,VALID,0,VALID,93.2913,VALID,0,VALID,19.5993,VALID,28,VALID,0.71829,
2001-10-31, 01:05:00,VALID,918.694,VALID,0,VALID,93.2836,VALID,0,VALID,19.6026,VALID,11,VALID,0.591427,
2001-10-31, 01:06:01,VALID,918.693,VALID,0,VALID,93.4668,VALID,0,VALID,19.6093,VALID,12,VALID,0.35588,
2001-10-31, 01:07:01,VALID,918.678,VALID,0,VALID,93.379,VALID,0,VALID,19.5993,VALID,12,VALID,0.0906661,
2001-10-31, 01:08:00,VALID,918.685,VALID,0,VALID,93.4846,VALID,0,VALID,19.5805,VALID,12,VALID,0.0241071,
2001-10-31, 01:09:00,VALID,918.683,VALID,0,VALID,93.6816,VALID,0,VALID,19.5705,VALID,12,VALID,0,
2001-10-31, 01:10:01,VALID,918.688,VALID,0,VALID,93.819,VALID,0.0169808,VALID,19.5675,VALID,67,VALID,0.105928,
2001-10-31, 01:11:01,VALID,918.676,VALID,0,VALID,93.88,VALID,0,VALID,19.5551,VALID,112,VALID,0.0865709,
2001-10-31, 01:12:00,VALID,918.672,VALID,0,VALID,93.969,VALID,0,VALID,19.5355,VALID,112,VALID,0,
2001-10-31, 01:13:00,VALID,918.661,VALID,0,VALID,94.011,VALID,0,VALID,19.5226,VALID,112,VALID,0,
2001-10-31, 01:14:01,VALID,918.675,VALID,0,VALID,93.9601,VALID,0.0169808,VALID,19.5032,VALID,112,VALID,0.0535714,
2001-10-31, 01:15:00,VALID,918.658,VALID,0,VALID,94.2056,VALID,0,VALID,19.4902,VALID,96,VALID,0.346284,
2001-10-31, 01:16:01,VALID,918.656,VALID,0,VALID,94.3938,VALID,0,VALID,19.4932,VALID,55,VALID,0.518612,
2001-10-31, 01:17:00,VALID,918.614,VALID,0,VALID,94.4332,VALID,0,VALID,19.4642,VALID,32,VALID,0.614515,
2001-10-31, 01:18:01,VALID,918.614,VALID,0,VALID,94.3556,VALID,0,VALID,19.4418,VALID,18,VALID,0.773438,
2001-10-31, 01:19:01,VALID,918.598,VALID,0,VALID,94.4904,VALID,0,VALID,19.4095,VALID,12,VALID,0.949219,
2001-10-31, 01:20:00,VALID,918.571,VALID,0,VALID,94.5756,VALID,0,VALID,19.3839,VALID,10,VALID,0.760714,
2001-10-31, 01:21:01,VALID,918.54,VALID,0,VALID,94.7078,VALID,0,VALID,19.3707,VALID,11,VALID,0.80152,
2001-10-31, 01:22:01,VALID,918.519,VALID,0,VALID,94.6557,VALID,-0.0169808,VALID,19.3541,VALID,355,VALID,0.667969,
2001-10-31, 01:23:01,VALID,918.508,VALID,0,VALID,94.7689,VALID,0,VALID,19.3772,VALID,352,VALID,0.39147,
2001-10-31, 01:24:01,VALID,918.484,VALID,0,VALID,94.7574,VALID,0.0169808,VALID,19.3767,VALID,333,VALID,0.52124,
2001-10-31, 01:25:01,VALID,918.477,VALID,0,VALID,94.6226,VALID,-0.0169808,VALID,19.3901,VALID,345,VALID,0.536058,
2001-10-31, 01:26:01,VALID,918.452,VALID,0,VALID,94.5196,VALID,-0.0169808,VALID,19.4157,VALID,7,VALID,0.551786,
2001-10-31, 01:27:01,VALID,918.445,VALID,0,VALID,94.4866,VALID,0,VALID,19.4162,VALID,10,VALID,0.611275,
2001-10-31, 01:28:01,VALID,918.43,VALID,0,VALID,94.5107,VALID,-0.0169808,VALID,19.4065,VALID,357,VALID,0.688419,
2001-10-31, 01:29:01,VALID,918.428,VALID,0,VALID,94.5171,VALID,0,VALID,19.3966,VALID,358,VALID,0.438133,
2001-10-31, 01:30:01,VALID,918.419,VALID,0,VALID,94.5794,VALID,0,VALID,19.3933,VALID,357,VALID,0.391653,
2001-10-31, 01:31:01,VALID,918.407,VALID,0,VALID,94.6773,VALID,-0.0169808,VALID,19.3904,VALID,352,VALID,0.515831,
2001-10-31, 01:32:01,VALID,918.388,VALID,0,VALID,94.7358,VALID,-0.0169808,VALID,19.3901,VALID,354,VALID,0.2125,
2001-10-31, 01:33:01,VALID,918.366,VALID,0,VALID,94.7612,VALID,-0.0169808,VALID,19.3899,VALID,329,VALID,0.254012,
2001-10-31, 01:34:01,VALID,918.368,VALID,0,VALID,94.8452,VALID,0,VALID,19.3993,VALID,310,VALID,0.283088,
2001-10-31, 01:35:01,VALID,918.35,VALID,0,VALID,94.9049,VALID,-0.0169808,VALID,19.4093,VALID,356,VALID,0.476985,
2001-10-31, 01:36:01,VALID,918.35,VALID,0,VALID,94.7969,VALID,0,VALID,19.4291,VALID,334,VALID,0.600098,
2001-10-31, 01:37:01,VALID,918.335,VALID,0,VALID,94.8223,VALID,0,VALID,19.4152,VALID,357,VALID,0.528446,
2001-10-31, 01:38:01,VALID,918.331,VALID,0,VALID,94.6684,VALID,0.0169808,VALID,19.4254,VALID,5,VALID,1.05446,
2001-10-31, 01:39:01,VALID,918.314,VALID,0,VALID,94.5222,VALID,0,VALID,19.4252,VALID,15,VALID,1.05004,
2001-10-31, 01:40:01,VALID,918.287,VALID,0,VALID,94.2145,VALID,0,VALID,19.4741,VALID,12,VALID,0.855928,
2001-10-31, 01:41:00,VALID,918.265,VALID,0,VALID,93.983,VALID,-0.0169808,VALID,19.5094,VALID,16,VALID,0.976985,
2001-10-31, 01:42:00,VALID,918.239,VALID,0,VALID,93.7122,VALID,0,VALID,19.5318,VALID,17,VALID,1.11554,
2001-10-31, 01:43:00,VALID,918.223,VALID,0,VALID,93.627,VALID,0,VALID,19.5705,VALID,18,VALID,1.19799,
2001-10-31, 01:44:00,VALID,918.196,VALID,0,VALID,93.3905,VALID,0,VALID,19.5805,VALID,23,VALID,1.32902,
2001-10-31, 01:45:00,VALID,918.169,VALID,0,VALID,93.3192,VALID,0,VALID,19.5675,VALID,22,VALID,1.43623,
2001-10-31, 01:46:00,VALID,918.143,VALID,0,VALID,93.3892,VALID,0,VALID,19.5641,VALID,12,VALID,1.36282,
2001-10-31, 01:47:00,VALID,918.133,VALID,0,VALID,93.3637,VALID,0,VALID,19.5705,VALID,12,VALID,1.35135,
2001-10-31, 01:48:00,VALID,918.127,VALID,0,VALID,93.3116,VALID,0,VALID,19.5708,VALID,10,VALID,1.49536,
2001-10-31, 01:49:00,VALID,918.095,VALID,0,VALID,93.2862,VALID,0.0169808,VALID,19.5735,VALID,13,VALID,1.36378,
2001-10-31, 01:50:00,VALID,918.087,VALID,0,VALID,93.2925,VALID,0.0169808,VALID,19.5772,VALID,24,VALID,1.49152,
2001-10-31, 01:51:00,VALID,918.08,VALID,0,VALID,93.3803,VALID,0,VALID,19.5643,VALID,22,VALID,1.31693,
2001-10-31, 01:52:00,VALID,918.084,VALID,0,VALID,93.337,VALID,0.0339617,VALID,19.5571,VALID,23,VALID,1.86328,
2001-10-31, 01:53:00,VALID,918.08,VALID,0,VALID,93.1959,VALID,0,VALID,19.5807,VALID,23,VALID,1.58045,
2001-10-31, 01:54:00,VALID,918.07,VALID,0,VALID,93.0853,VALID,0,VALID,19.6033,VALID,24,VALID,1.3162,
2001-10-31, 01:55:00,VALID,918.058,VALID,0,VALID,92.8894,VALID,-0.0169808,VALID,19.6287,VALID,21,VALID,1.17887,
2001-10-31, 01:56:00,VALID,918.054,VALID,0,VALID,92.9785,VALID,0,VALID,19.6351,VALID,23,VALID,0.811607,
2001-10-31, 01:57:00,VALID,918.039,VALID,0,VALID,93.126,VALID,0.0339617,VALID,19.6254,VALID,1,VALID,0.349873,
2001-10-31, 01:58:00,VALID,918.027,VALID,0,VALID,93.1209,VALID,0.0169808,VALID,19.606,VALID,359,VALID,0.179688,
2001-10-31, 01:59:00,VALID,917.997,VALID,0,VALID,93.0624,VALID,0,VALID,19.5966,VALID,16,VALID,0.36951,
2001-10-31, 02:00:00,VALID,917.974,VALID,0,VALID,93.098,VALID,0,VALID,19.5934,VALID,21,VALID,0.224609,
2001-10-31, 02:01:00,VALID,917.968,VALID,0,VALID,93.1857,VALID,-0.0169808,VALID,19.5998,VALID,40,VALID,0.379407,
2001-10-31, 02:02:00,VALID,917.964,VALID,0,VALID,93.1272,VALID,0,VALID,19.5901,VALID,49,VALID,0.468527,
2001-10-31, 02:03:00,VALID,917.966,VALID,0,VALID,93.1832,VALID,0,VALID,19.5899,VALID,56,VALID,0.668708,
2001-10-31, 02:04:00,VALID,917.951,VALID,0,VALID,93.1349,VALID,0.0169808,VALID,19.6026,VALID,38,VALID,0.622013,
2001-10-31, 02:05:00,VALID,917.94,VALID,0,VALID,93.1107,VALID,0,VALID,19.606,VALID,18,VALID,0.817145,
2001-10-31, 02:06:00,VALID,917.914,VALID,0,VALID,92.9479,VALID,0,VALID,19.6125,VALID,20,VALID,0.527344,
2001-10-31, 02:07:00,VALID,917.904,VALID,0,VALID,92.8983,VALID,0,VALID,19.6515,VALID,20,VALID,0.542763,
2001-10-31, 02:08:00,VALID,917.897,VALID,0,VALID,92.8004,VALID,0,VALID,19.6709,VALID,1,VALID,0.609821,
2001-10-31, 02:09:00,VALID,917.882,VALID,0,VALID,92.405,VALID,0,VALID,19.6831,VALID,337,VALID,0.599873,
2001-10-31, 02:10:00,VALID,917.868,VALID,0,VALID,92.2981,VALID,0,VALID,19.7189,VALID,349,VALID,0.616728,
2001-10-31, 02:11:00,VALID,917.859,VALID,0,VALID,92.0705,VALID,-0.0169808,VALID,19.7447,VALID,353,VALID,0.494932,
2001-10-31, 02:12:00,VALID,917.858,VALID,0,VALID,92.2969,VALID,0.0339617,VALID,19.777,VALID,9,VALID,0.45166,
2001-10-31, 02:13:00,VALID,917.854,VALID,0,VALID,92.48,VALID,-0.0339617,VALID,19.7869,VALID,6,VALID,0.53746,
2001-10-31, 02:14:00,VALID,917.845,VALID,0,VALID,92.1646,VALID,0.0339617,VALID,19.771,VALID,355,VALID,0.470982,
2001-10-31, 02:15:00,VALID,917.841,VALID,0,VALID,92.2664,VALID,0,VALID,19.774,VALID,28,VALID,0.544764,
2001-10-31, 02:16:00,VALID,917.831,VALID,0,VALID,92.4456,VALID,0,VALID,19.7867,VALID,31,VALID,0.496783,
2001-10-31, 02:17:00,VALID,917.819,VALID,0,VALID,92.2269,VALID,0,VALID,19.7869,VALID,34,VALID,0.38788,
2001-10-31, 02:18:00,VALID,917.809,VALID,0,VALID,92.2473,VALID,0.0169808,VALID,19.7671,VALID,31,VALID,0.278577,
2001-10-31, 02:19:00,VALID,917.81,VALID,0,VALID,92.5232,VALID,0,VALID,19.7773,VALID,31,VALID,0.0676398,
2001-10-31, 02:20:00,VALID,917.815,VALID,0,VALID,92.9696,VALID,0,VALID,19.7671,VALID,31,VALID,0.00133929,
2001-10-31, 02:21:00,VALID,917.809,VALID,0,VALID,92.9378,VALID,0,VALID,19.771,VALID,15,VALID,0.0785473,
2001-10-31, 02:22:00,VALID,917.82,VALID,0,VALID,92.9276,VALID,-0.0169808,VALID,19.7673,VALID,352,VALID,0.283318,
2001-10-31, 02:23:00,VALID,917.817,VALID,0,VALID,92.5397,VALID,0,VALID,19.7676,VALID,341,VALID,0.078125,
2001-10-31, 02:24:00,VALID,917.842,VALID,0,VALID,92.5461,VALID,0,VALID,19.7773,VALID,333,VALID,0,
2001-10-31, 02:25:00,VALID,917.822,VALID,0,VALID,92.6567,VALID,0.0339617,VALID,19.8225,VALID,327,VALID,0,
2001-10-31, 02:26:00,VALID,917.824,VALID,0,VALID,92.4469,VALID,0.0169808,VALID,19.8351,VALID,327,VALID,0,
2001-10-31, 02:27:00,VALID,917.83,VALID,0,VALID,92.6593,VALID,-0.0169808,VALID,19.8416,VALID,319,VALID,0,
2001-10-31, 02:28:00,VALID,917.833,VALID,0,VALID,92.4736,VALID,0,VALID,19.8322,VALID,239,VALID,0.335938,
2001-10-31, 02:29:00,VALID,917.844,VALID,0,VALID,92.3973,VALID,0,VALID,19.8031,VALID,223,VALID,0.311022,
2001-10-31, 02:30:00,VALID,917.839,VALID,0,VALID,92.6084,VALID,0,VALID,19.7869,VALID,231,VALID,0.377467,
2001-10-31, 02:31:00,VALID,917.842,VALID,0,VALID,92.5461,VALID,0,VALID,19.7638,VALID,243,VALID,0.373561,
2001-10-31, 02:32:00,VALID,917.852,VALID,0,VALID,92.4228,VALID,0,VALID,19.7517,VALID,243,VALID,0.333036,
2001-10-31, 02:33:00,VALID,917.848,VALID,0,VALID,92.3554,VALID,0.0509425,VALID,19.7343,VALID,243,VALID,0.00401182,
2001-10-31, 02:34:00,VALID,917.844,VALID,0,VALID,92.3249,VALID,0.0849042,VALID,19.7335,VALID,243,VALID,0,
2001-10-31, 02:35:00,VALID,917.848,VALID,0,VALID,92.6377,VALID,0.0849042,VALID,19.7435,VALID,243,VALID,0,
2001-10-31, 02:36:00,VALID,917.853,VALID,0,VALID,92.9683,VALID,0.101885,VALID,19.7695,VALID,187,VALID,0.0229492,
2001-10-31, 02:37:00,VALID,917.84,VALID,0,VALID,93.1946,VALID,0.0679233,VALID,19.7561,VALID,139,VALID,0.402845,
2001-10-31, 02:38:00,VALID,917.842,VALID,0,VALID,93.2658,VALID,0.118866,VALID,19.74,VALID,147,VALID,0.345982,
2001-10-31, 02:39:00,VALID,917.84,VALID,0,VALID,93.5354,VALID,0.101885,VALID,19.7181,VALID,122,VALID,0.282517,
2001-10-31, 02:40:00,VALID,917.848,VALID,0,VALID,93.8101,VALID,0.0849042,VALID,19.6953,VALID,104,VALID,0.381893,
2001-10-31, 02:41:00,VALID,917.841,VALID,0,VALID,93.9118,VALID,0.101885,VALID,19.6562,VALID,109,VALID,0.526394,
2001-10-31, 02:42:00,VALID,917.844,VALID,0,VALID,94.1712,VALID,0.0849042,VALID,19.6239,VALID,118,VALID,0.415502,
2001-10-31, 02:43:00,VALID,917.845,VALID,0,VALID,94.465,VALID,0.135847,VALID,19.5981,VALID,125,VALID,0.377467,
2001-10-31, 02:44:00,VALID,917.838,VALID,0,VALID,94.5858,VALID,0.101885,VALID,19.5723,VALID,154,VALID,0.389732,
2001-10-31, 02:45:00,VALID,917.849,VALID,0,VALID,94.7206,VALID,0.101885,VALID,19.5626,VALID,154,VALID,0.524071,
2001-10-31, 02:46:00,VALID,917.844,VALID,0,VALID,94.9533,VALID,0.101885,VALID,19.5593,VALID,142,VALID,0.673483,
2001-10-31, 02:47:00,VALID,917.824,VALID,0,VALID,94.9062,VALID,0.101885,VALID,19.53,VALID,132,VALID,0.570313,
2001-10-31, 02:48:00,VALID,917.813,VALID,0,VALID,94.9825,VALID,0.0509425,VALID,19.4987,VALID,110,VALID,0.777344,
2001-10-31, 02:49:00,VALID,917.797,VALID,0,VALID,94.9901,VALID,0,VALID,19.4577,VALID,86,VALID,0.884215,
2001-10-31, 02:50:00,VALID,917.789,VALID,0,VALID,95.3818,VALID,0,VALID,19.445,VALID,65,VALID,0.637054,
2001-10-31, 02:51:00,VALID,917.775,VALID,0,VALID,95.617,VALID,0.0169808,VALID,19.4281,VALID,47,VALID,0.360642,
2001-10-31, 02:52:00,VALID,917.791,VALID,0,VALID,95.6882,VALID,-0.0169808,VALID,19.415,VALID,46,VALID,0.269301,
2001-10-31, 02:53:00,VALID,917.792,VALID,0,VALID,95.7569,VALID,-0.0169808,VALID,19.4252,VALID,51,VALID,0.0135135,
2001-10-31, 02:54:00,VALID,917.8,VALID,0,VALID,95.7976,VALID,-0.0169808,VALID,19.4252,VALID,51,VALID,0,
2001-10-31, 02:55:00,VALID,917.791,VALID,0,VALID,95.8599,VALID,-0.0169808,VALID,19.4088,VALID,51,VALID,0,
2001-10-31, 02:56:00,VALID,917.781,VALID,0,VALID,95.8548,VALID,0,VALID,19.4252,VALID,94,VALID,0.222321,
2001-10-31, 02:57:00,VALID,917.763,VALID,0,VALID,95.7455,VALID,-0.0169808,VALID,19.3958,VALID,110,VALID,0.733108,
2001-10-31, 02:58:00,VALID,917.713,VALID,0,VALID,95.8561,VALID,0,VALID,19.3866,VALID,51,VALID,0.488971,
2001-10-31, 02:59:00,VALID,917.698,VALID,0,VALID,95.9833,VALID,-0.0169808,VALID,19.3837,VALID,3,VALID,0.460093,
2001-10-31, 03:00:00,VALID,917.699,VALID,0,VALID,96.0532,VALID,0,VALID,19.3635,VALID,346,VALID,0.159912,
2001-10-31, 03:01:00,VALID,917.696,VALID,0,VALID,95.9591,VALID,0,VALID,19.3578,VALID,79,VALID,0.561298,
2001-10-31, 03:02:00,VALID,917.68,VALID,0,VALID,95.8752,VALID,0.0169808,VALID,19.3312,VALID,186,VALID,0.539732,
2001-10-31, 03:03:00,VALID,917.678,VALID,0,VALID,95.926,VALID,-0.0169808,VALID,19.3447,VALID,146,VALID,0.204181,
2001-10-31, 03:04:00,VALID,917.661,VALID,0,VALID,95.8269,VALID,-0.0169808,VALID,19.3342,VALID,105,VALID,0.174632,
2001-10-31, 03:05:00,VALID,917.652,VALID,0,VALID,95.8497,VALID,-0.0169808,VALID,19.3479,VALID,136,VALID,0.139147,
2001-10-31, 03:06:00,VALID,917.642,VALID,0,VALID,95.8548,VALID,0,VALID,19.3345,VALID,200,VALID,0.260691,
2001-10-31, 03:07:00,VALID,917.605,VALID,0,VALID,95.7874,VALID,0,VALID,19.3312,VALID,200,VALID,0.0193257,
2001-10-31, 03:08:00,VALID,917.605,VALID,0,VALID,95.7684,VALID,0,VALID,19.335,VALID,200,VALID,0,
2001-10-31, 03:09:00,VALID,917.594,VALID,0,VALID,95.7607,VALID,0,VALID,19.3317,VALID,200,VALID,0.0869932,
2001-10-31, 03:10:00,VALID,917.549,VALID,0,VALID,95.8459,VALID,-0.0169808,VALID,19.3377,VALID,174,VALID,0.0912224,
2001-10-31, 03:11:00,VALID,917.549,VALID,0,VALID,95.8167,VALID,-0.0169808,VALID,19.3414,VALID,127,VALID,0.195735,
2001-10-31, 03:12:00,VALID,917.538,VALID,0,VALID,95.8688,VALID,0,VALID,19.3352,VALID,101,VALID,0.0385742,
2001-10-31, 03:13:00,VALID,917.51,VALID,0,VALID,95.8866,VALID,0,VALID,19.3156,VALID,99,VALID,0.0791266,
2001-10-31, 03:14:00,VALID,917.493,VALID,0,VALID,95.8714,VALID,-0.0169808,VALID,19.2962,VALID,80,VALID,0.430804,
2001-10-31, 03:15:00,VALID,917.503,VALID,0,VALID,96.0354,VALID,0,VALID,19.2865,VALID,34,VALID,0.387669,
2001-10-31, 03:16:00,VALID,917.506,VALID,0,VALID,96.1575,VALID,0,VALID,19.2701,VALID,32,VALID,0.0477941,
2001-10-31, 03:17:00,VALID,917.512,VALID,0,VALID,96.2554,VALID,-0.0339617,VALID,19.2641,VALID,32,VALID,0,
2001-10-31, 03:18:00,VALID,917.501,VALID,0,VALID,96.3469,VALID,0,VALID,19.2607,VALID,32,VALID,0,
2001-10-31, 03:19:00,VALID,917.487,VALID,0,VALID,96.3711,VALID,-0.0169808,VALID,19.2475,VALID,32,VALID,0,
2001-10-31, 03:20:00,VALID,917.494,VALID,0,VALID,96.3139,VALID,-0.0169808,VALID,19.2413,VALID,32,VALID,0,
2001-10-31, 03:21:00,VALID,917.482,VALID,0,VALID,96.235,VALID,0,VALID,19.209,VALID,32,VALID,0,
2001-10-31, 03:22:00,VALID,917.472,VALID,0,VALID,96.2655,VALID,0.0169808,VALID,19.1963,VALID,32,VALID,0,
2001-10-31, 03:23:00,VALID,917.453,VALID,0,VALID,96.2452,VALID,-0.0169808,VALID,19.17,VALID,54,VALID,0.168497,
2001-10-31, 03:24:00,VALID,917.452,VALID,0,VALID,96.2528,VALID,0,VALID,19.1608,VALID,57,VALID,0.0292969,
2001-10-31, 03:25:00,VALID,917.454,VALID,0,VALID,96.2541,VALID,0,VALID,19.1506,VALID,60,VALID,0,
2001-10-31, 03:26:00,VALID,917.442,VALID,0,VALID,96.2567,VALID,-0.0169808,VALID,19.1543,VALID,119,VALID,0,
2001-10-31, 03:27:00,VALID,917.438,VALID,0,VALID,96.2706,VALID,-0.0169808,VALID,19.168,VALID,124,VALID,0,
2001-10-31, 03:28:00,VALID,917.439,VALID,0,VALID,96.3927,VALID,-0.0169808,VALID,19.1737,VALID,142,VALID,0.122472,
2001-10-31, 03:29:00,VALID,917.425,VALID,0,VALID,96.422,VALID,0,VALID,19.1628,VALID,146,VALID,0.245144,
2001-10-31, 03:30:00,VALID,917.416,VALID,0,VALID,96.4601,VALID,0,VALID,19.1866,VALID,145,VALID,0,
2001-10-31, 03:31:00,VALID,917.395,VALID,0,VALID,96.4512,VALID,0,VALID,19.1896,VALID,145,VALID,0,
2001-10-31, 03:32:00,VALID,917.402,VALID,0,VALID,96.4881,VALID,-0.0169808,VALID,19.1866,VALID,145,VALID,0,
2001-10-31, 03:33:00,VALID,917.404,VALID,0,VALID,96.5389,VALID,0,VALID,19.1966,VALID,145,VALID,0.0620777,
2001-10-31, 03:34:00,VALID,917.399,VALID,0,VALID,96.5377,VALID,-0.0679233,VALID,19.2005,VALID,145,VALID,0,
2001-10-31, 03:35:00,VALID,917.384,VALID,0,VALID,96.5847,VALID,0,VALID,19.2062,VALID,145,VALID,0.00105574,
2001-10-31, 03:36:00,VALID,917.392,VALID,0,VALID,96.6407,VALID,-0.0509425,VALID,19.2132,VALID,48,VALID,0.239746,
2001-10-31, 03:37:00,VALID,917.389,VALID,0,VALID,96.5415,VALID,-0.0849042,VALID,19.2167,VALID,43,VALID,0,
2001-10-31, 03:38:00,VALID,917.388,VALID,0,VALID,96.4232,VALID,-0.0849042,VALID,19.2005,VALID,43,VALID,0,
2001-10-31, 03:39:00,VALID,917.381,VALID,0,VALID,96.3304,VALID,-0.0679233,VALID,19.1647,VALID,42,VALID,0,